EW4320 Weather Reports


Display with metric or nautical units.
time (UTC)temp
F
wind
direction
speed
MPH
gust
MPH
rain 1hr
in
rain 24hr
in
rain mn
in
humidity
%
barometer
mb
20260506061503 45 347 6.0 12.0 0.00 0.00 0.00 83 1012.3
20260506061003 44 353 6.0 13.0 0.00 0.00 0.00 83 1012.2
20260506060503 44 349 6.0 13.0 0.00 0.00 0.00 83 1012.2
20260506051003 44 347 4.0 11.0 0.00 0.00 0.00 85 1012.1
20260506050504 44 348 4.0 6.0 0.00 0.00 0.00 85 1012.1
20260506044503 44 344 4.0 9.0 0.00 0.00 0.00 84 1012.1
20260506044004 44 347 4.0 7.0 0.00 0.00 0.00 84 1012.1
20260506043505 44 351 3.0 7.0 0.00 0.00 0.00 84 1012.1
20260506043003 44 354 3.0 6.0 0.00 0.00 0.00 83 1012.1
20260506042503 44 356 4.0 10.0 0.00 0.00 0.00 83 1012.1
20260506042215 44 358 4.0 12.0 0.00 0.00 0.00 83 1012.1
20260506041504 44 358 7.0 14.0 0.00 0.00 0.00 83 1012.1
20260506041003 45 357 7.0 13.0 0.00 0.00 0.00 83 1012.1
20260506040713 45 356 7.0 13.0 0.00 0.00 0.00 83 1012.1
20260506040004 45 354 6.0 12.0 0.00 0.00 0.00 83 1012.1
20260506035714 45 354 5.0 12.0 0.00 0.00 0.00 83 1012.1
20260506035003 45 357 5.0 14.0 0.00 0.00 0.00 83 1012.1
20260506034503 45 357 5.0 14.0 0.00 0.00 0.00 83 1012.1
20260506034005 45 358 5.0 14.0 0.00 0.00 0.00 83 1012.0
20260506033503 45 3 5.0 12.0 0.00 0.00 0.00 83 1012.0
20260506033214 45 4 6.0 12.0 0.00 0.00 0.00 83 1012.0
20260506032504 45 357 6.0 14.0 0.00 0.00 0.00 83 1012.1
20260506032003 46 354 5.0 9.0 0.00 0.00 0.00 83 1012.1
20260506031503 46 359 5.0 13.0 0.00 0.00 0.00 82 1012.1
20260506031003 46 2 5.0 13.0 0.00 0.00 0.00 82 1012.2
20260506030503 46 3 5.0 12.0 0.00 0.00 0.00 82 1012.2
20260506030003 46 2 4.0 12.0 0.00 0.00 0.00 82 1012.2
20260506025503 46 1 4.0 12.0 0.00 0.00 0.00 82 1012.3
20260506025003 46 3 5.0 12.0 0.00 0.00 0.00 82 1012.3
20260506024503 46 4 4.0 12.0 0.00 0.00 0.00 82 1012.3
20260506024003 46 2 5.0 13.0 0.00 0.00 0.00 82 1012.1
20260506023717 46 2 6.0 13.0 0.00 0.00 0.00 81 1012.1
20260506023004 46 1 4.0 13.0 0.00 0.00 0.00 81 1012.1
20260506022504 46 2 4.0 9.0 0.00 0.00 0.00 81 1012.3
20260506022003 46 7 4.0 12.0 0.00 0.00 0.00 81 1012.3
20260506021503 46 3 6.0 15.0 0.00 0.00 0.00 81 1012.3
20260506021003 46 359 6.0 15.0 0.00 0.00 0.00 81 1012.4
20260506020503 46 6 4.0 12.0 0.00 0.00 0.00 81 1012.4
20260506020004 46 9 4.0 12.0 0.00 0.00 0.00 81 1012.4
20260506015503 46 5 5.0 12.0 0.00 0.00 0.00 81 1012.5
20260506015003 46 6 5.0 13.0 0.00 0.00 0.00 81 1012.5
20260506014503 46 2 5.0 13.0 0.00 0.00 0.00 81 1012.5
20260506014003 46 358 5.0 12.0 0.00 0.00 0.00 81 1012.5
20260506013503 46 1 5.0 12.0 0.00 0.00 0.00 80 1012.5
20260506013003 46 3 5.0 11.0 0.00 0.00 0.00 80 1012.5
20260506012504 46 6 5.0 12.0 0.00 0.00 0.00 80 1012.6
20260506012003 47 5 4.0 12.0 0.00 0.00 0.00 80 1012.6
20260506011503 47 360 5.0 13.0 0.00 0.00 0.00 80 1012.6
20260506011004 47 1 7.0 13.0 0.00 0.00 0.00 80 1012.5
20260506010504 47 4 5.0 13.0 0.00 0.00 0.00 81 1012.5
20260506010004 47 8 5.0 13.0 0.00 0.00 0.00 81 1012.5
20260506005503 47 11 5.0 12.0 0.00 0.00 0.00 81 1012.5
20260506005214 47 5 5.0 12.0 0.00 0.00 0.00 81 1012.5
20260506004717 47 7 5.0 13.0 0.00 0.00 0.00 81 1012.5
20260506004005 47 12 5.0 13.0 0.00 0.00 0.00 81 1012.6
20260506003503 47 14 5.0 11.0 0.00 0.00 0.00 81 1012.6
20260506003003 47 12 6.0 12.0 0.00 0.00 0.00 81 1012.6
20260506002504 48 7 7.0 13.0 0.00 0.00 0.00 81 1012.6
20260506002217 48 5 6.0 13.0 0.00 0.00 0.00 81 1012.6
20260506001503 48 4 5.0 11.0 0.00 0.00 0.00 82 1012.6
20260506001003 48 360 5.0 11.0 0.00 0.00 0.00 82 1012.6
20260506000503 48 357 6.0 13.0 0.00 0.00 0.00 82 1012.6
20260506000015 48 358 6.0 13.0 0.00 0.00 0.00 82 1012.6
20260505235503 48 2 5.0 12.0 0.00 0.00 0.00 81 1012.6
20260505235003 48 8 5.0 12.0 0.00 0.00 0.00 81 1012.6
20260505234505 48 9 6.0 12.0 0.00 0.00 0.00 81 1012.6
20260505234004 48 7 6.0 14.0 0.00 0.00 0.00 80 1012.6
20260505233504 48 7 7.0 14.0 0.00 0.00 0.00 80 1012.6
20260505233217 48 8 7.0 14.0 0.00 0.00 0.00 80 1012.6
20260505232504 48 10 5.0 12.0 0.00 0.00 0.00 80 1012.7
20260505232003 49 11 5.0 12.0 0.00 0.00 0.00 80 1012.7
20260505231504 49 11 6.0 13.0 0.00 0.00 0.00 80 1012.7
20260505231006 49 4 6.0 13.0 0.00 0.00 0.00 80 1012.8
20260505230503 49 5 5.0 12.0 0.00 0.00 0.00 80 1012.8
20260505230004 49 10 4.0 11.0 0.00 0.00 0.00 81 1012.8
20260505225718 49 13 4.0 9.0 0.00 0.00 0.00 81 1012.7
20260505225003 49 11 4.0 11.0 0.00 0.00 0.00 81 1012.7
20260505224503 49 8 5.0 12.0 0.00 0.00 0.00 81 1012.7
20260505224003 49 7 6.0 14.0 0.00 0.00 0.00 81 1012.7
20260505223503 50 5 6.0 14.0 0.00 0.00 0.00 81 1012.7
20260505223004 50 7 6.0 14.0 0.00 0.00 0.00 81 1012.7
20260505222503 50 10 6.0 15.0 0.00 0.00 0.00 81 1012.7
20260505222004 50 13 7.0 18.0 0.00 0.00 0.00 81 1012.7
20260505221504 50 13 7.0 18.0 0.00 0.00 0.00 80 1012.7
20260505221004 50 11 7.0 15.0 0.00 0.00 0.00 80 1012.7
20260505220504 50 11 6.0 15.0 0.00 0.00 0.00 80 1012.7
20260505220003 51 16 5.0 14.0 0.00 0.00 0.00 80 1012.7
20260505215503 51 20 5.0 14.0 0.00 0.00 0.00 80 1012.6
20260505215003 51 25 4.0 9.0 0.00 0.00 0.00 79 1012.6
20260505214504 51 21 5.0 12.0 0.00 0.00 0.00 79 1012.6
20260505214004 51 17 5.0 12.0 0.00 0.00 0.00 79 1012.7
20260505213504 51 23 5.0 12.0 0.00 0.00 0.00 78 1012.7
20260505213003 51 36 4.0 12.0 0.00 0.00 0.00 78 1012.7
20260505212716 51 39 5.0 12.0 0.00 0.00 0.00 78 1012.7
20260505212004 51 28 6.0 12.0 0.00 0.00 0.00 78 1012.7
20260505211504 51 30 5.0 12.0 0.00 0.00 0.00 77 1012.7
20260505211003 51 33 5.0 13.0 0.00 0.00 0.00 77 1012.6
20260505210504 51 27 6.0 13.0 0.00 0.00 0.00 77 1012.6
20260505210004 51 28 6.0 13.0 0.00 0.00 0.00 77 1012.6
20260505205504 51 32 5.0 12.0 0.00 0.00 0.00 77 1012.6
20260505205004 51 31 5.0 12.0 0.00 0.00 0.00 76 1012.6
20260505204503 51 29 6.0 17.0 0.00 0.00 0.00 76 1012.6
20260505204004 51 29 7.0 17.0 0.00 0.00 0.00 75 1012.4
20260505203504 52 25 7.0 12.0 0.00 0.00 0.00 74 1012.4
20260505203003 52 20 6.0 14.0 0.00 0.00 0.00 74 1012.4
20260505202503 52 23 6.0 14.0 0.00 0.00 0.00 73 1012.3
20260505202004 52 23 6.0 13.0 0.00 0.00 0.00 73 1012.3
20260505201504 52 19 7.0 14.0 0.00 0.00 0.00 72 1012.3
20260505201003 52 20 8.0 15.0 0.00 0.00 0.00 72 1012.1
20260505200503 52 18 7.0 15.0 0.00 0.00 0.00 71 1012.1
20260505200005 53 15 7.0 15.0 0.00 0.00 0.00 71 1012.1
20260505195714 53 18 7.0 15.0 0.00 0.00 0.00 71 1012.0
20260505195004 53 20 7.0 15.0 0.00 0.00 0.00 70 1012.0
20260505194504 53 18 7.0 19.0 0.00 0.00 0.00 70 1012.0
20260505194003 54 20 7.0 19.0 0.00 0.00 0.00 70 1011.6
20260505193503 54 28 7.0 15.0 0.00 0.00 0.00 69 1011.6
20260505193004 54 30 5.0 13.0 0.00 0.00 0.00 69 1011.6
20260505192504 54 27 5.0 12.0 0.00 0.00 0.00 68 1011.4
20260505192004 54 15 6.0 13.0 0.00 0.00 0.00 68 1011.4
20260505191504 54 12 6.0 14.0 0.00 0.00 0.00 67 1011.4
20260505191003 55 28 6.0 14.0 0.00 0.00 0.00 67 1011.3
20260505190503 55 33 6.0 14.0 0.00 0.00 0.00 67 1011.3
20260505190003 55 29 6.0 13.0 0.00 0.00 0.00 67 1011.3
20260505185504 55 34 7.0 14.0 0.00 0.00 0.00 67 1011.2
20260505185213 55 38 7.0 14.0 0.00 0.00 0.00 67 1011.2
20260505184503 56 34 5.0 12.0 0.00 0.00 0.00 68 1011.2
20260505184003 56 22 5.0 13.0 0.00 0.00 0.00 68 1011.0
20260505183717 56 15 5.0 13.0 0.00 0.00 0.00 68 1011.0
20260505183003 56 12 7.0 14.0 0.00 0.00 0.00 68 1011.0
20260505182504 56 15 7.0 14.0 0.00 0.00 0.00 68 1010.9
20260505182003 56 24 6.0 11.0 0.00 0.00 0.00 67 1010.9
20260505181504 56 17 6.0 13.0 0.00 0.00 0.00 67 1010.9
20260505181003 56 10 7.0 14.0 0.00 0.00 0.00 67 1011.0
20260505180504 57 10 8.0 15.0 0.00 0.00 0.00 67 1011.0
20260505180004 57 12 8.0 15.0 0.00 0.00 0.00 67 1011.0
20260505175504 57 12 7.0 14.0 0.00 0.00 0.00 68 1011.0
20260505175004 57 11 7.0 14.0 0.00 0.00 0.00 67 1011.0
20260505174504 57 13 7.0 17.0 0.00 0.00 0.00 67 1011.0
20260505174004 58 16 5.0 17.0 0.00 0.00 0.00 68 1010.9
20260505173712 58 15 5.0 13.0 0.00 0.00 0.00 68 1010.9
20260505173216 58 31 6.0 13.0 0.00 0.00 0.00 67 1010.9
20260505172713 58 31 7.0 15.0 0.00 0.00 0.00 67 1010.8
20260505172004 58 17 6.0 15.0 0.00 0.00 0.00 66 1010.8
20260505171505 58 25 6.0 13.0 0.00 0.00 0.00 66 1010.8
20260505171003 58 26 6.0 13.0 0.00 0.00 0.00 66 1010.8
20260505170715 58 25 5.0 13.0 0.00 0.00 0.00 66 1010.8
20260505170005 58 21 4.0 9.0 0.00 0.00 0.00 66 1010.8
20260505165716 58 18 4.0 10.0 0.00 0.00 0.00 66 1010.8
20260505165003 59 22 6.0 13.0 0.00 0.00 0.00 65 1010.8
20260505164503 59 12 7.0 12.0 0.00 0.00 0.00 65 1010.8
20260505164003 59 3 7.0 12.0 0.00 0.00 0.00 64 1010.7
20260505163503 59 2 6.0 11.0 0.00 0.00 0.00 62 1010.7
20260505163003 59 357 6.0 11.0 0.00 0.00 0.00 61 1010.7
20260505162503 59 1 5.0 11.0 0.00 0.00 0.00 61 1010.6
20260505162003 59 3 5.0 11.0 0.00 0.00 0.00 61 1010.6
20260505161505 59 1 5.0 11.0 0.00 0.00 0.00 61 1010.6
20260505161003 59 2 5.0 11.0 0.00 0.00 0.00 60 1010.7
20260505160504 59 1 5.0 11.0 0.00 0.00 0.00 60 1010.7
20260505153217 60 360 4.0 7.0 0.00 0.00 0.00 60 1010.8
20260505152503 60 7 3.0 6.0 0.00 0.00 0.00 60 1010.9
20260505152003 60 4 2.0 5.0 0.00 0.00 0.00 59 1010.9
20260505151503 60 358 2.0 5.0 0.00 0.00 0.00 60 1010.9
20260505151003 60 6 3.0 5.0 0.00 0.00 0.00 60 1011.0
20260505150717 60 9 2.0 5.0 0.00 0.00 0.00 60 1011.0
20260505140503 60 353 5.0 9.0 0.00 0.00 0.00 59 1011.1
20260505125003 61 10 2.0 6.0 0.00 0.00 0.00 58 1011.2
20260505124504 61 23 3.0 7.0 0.00 0.00 0.00 58 1011.2
20260505124003 61 13 3.0 7.0 0.00 0.00 0.00 58 1011.3
20260505123504 61 6 4.0 11.0 0.00 0.00 0.00 59 1011.3
20260505123003 62 8 5.0 11.0 0.00 0.00 0.00 57 1011.3
20260505122503 63 358 4.0 12.0 0.00 0.00 0.00 57 1011.2
20260505122003 64 346 2.0 12.0 0.00 0.00 0.00 55 1011.2
20260505121504 62 75 1.0 5.0 0.00 0.00 0.00 55 1011.2
20260505121004 62 55 2.0 7.0 0.00 0.00 0.00 54 1011.3
20260505120504 62 66 3.0 7.0 0.00 0.00 0.00 56 1011.3
20260505120005 62 74 3.0 7.0 0.00 0.00 0.00 52 1011.3
20260505115504 62 58 3.0 7.0 0.00 0.00 0.00 54 1011.4
20260505115003 61 40 3.0 7.0 0.00 0.00 0.00 59 1011.4
20260505114503 60 10 2.0 6.0 0.00 0.00 0.00 60 1011.4
20260505114004 60 9 2.0 7.0 0.00 0.00 0.00 63 1011.5
20260505113716 60 347 2.0 7.0 0.00 0.00 0.00 62 1011.5
20260505113003 60 338 5.0 11.0 0.00 0.00 0.00 64 1011.5
20260505112503 60 354 5.0 11.0 0.00 0.00 0.00 63 1011.7
20260505112003 60 12 4.0 9.0 0.00 0.00 0.00 63 1011.7
20260505111503 60 29 4.0 9.0 0.00 0.00 0.00 64 1011.7
20260505111003 60 26 3.0 7.0 0.00 0.00 0.00 64 1011.9
20260505110714 60 5 4.0 7.0 0.00 0.00 0.00 64 1011.9
20260505102004 60 6 3.0 6.0 0.00 0.00 0.00 68 1012.0
20260505101505 59 352 3.0 6.0 0.00 0.00 0.00 67 1012.0
20260505101003 58 18 2.0 6.0 0.00 0.00 0.00 71 1012.1
20260505100504 58 18 2.0 6.0 0.00 0.00 0.00 72 1012.1
20260505100004 57 4 3.0 6.0 0.00 0.00 0.00 74 1012.1
20260505095504 57 360 3.0 7.0 0.00 0.00 0.00 74 1012.2
20260505095003 56 10 3.0 7.0 0.00 0.00 0.00 74 1012.2
20260505094503 56 10 3.0 6.0 0.00 0.00 0.00 75 1012.2
20260505094003 56 3 3.0 9.0 0.00 0.00 0.00 76 1012.4
20260505093503 56 3 3.0 9.0 0.00 0.00 0.00 77 1012.4
20260505093004 55 1 3.0 7.0 0.00 0.00 0.00 78 1012.4
20260505092504 55 356 3.0 7.0 0.00 0.00 0.00 78 1012.4
20260505092216 55 350 4.0 9.0 0.00 0.00 0.00 80 1012.4
20260505091504 55 346 4.0 9.0 0.00 0.00 0.00 80 1012.4
20260505091217 55 347 4.0 9.0 0.00 0.00 0.00 80 1012.4
20260505090504 55 360 4.0 11.0 0.00 0.00 0.00 80 1012.4
20260505090005 55 8 3.0 11.0 0.00 0.00 0.00 79 1012.4
20260505085504 55 11 2.0 6.0 0.00 0.00 0.00 80 1012.4
20260505085003 55 4 2.0 6.0 0.00 0.00 0.00 81 1012.4
20260505084503 54 349 3.0 6.0 0.00 0.00 0.00 81 1012.4
20260505084003 54 340 3.0 6.0 0.00 0.00 0.00 81 1012.3
20260505083503 54 342 3.0 6.0 0.00 0.00 0.00 82 1012.3
20260505083003 54 350 3.0 6.0 0.00 0.00 0.00 82 1012.3
20260505082503 54 360 3.0 9.0 0.00 0.00 0.00 83 1012.5
20260505082004 54 355 4.0 9.0 0.00 0.00 0.00 83 1012.5
20260505081715 54 353 5.0 9.0 0.00 0.00 0.00 83 1012.5
20260505081003 53 356 3.0 7.0 0.00 0.00 0.00 84 1012.5
20260505080503 53 346 3.0 6.0 0.00 0.00 0.00 84 1012.5
20260505080003 53 329 3.0 7.0 0.00 0.00 0.00 84 1012.5
20260505075503 54 338 3.0 7.0 0.00 0.00 0.00 84 1012.5
20260505075004 54 348 2.0 6.0 0.00 0.00 0.00 86 1012.5
20260505074503 54 340 2.0 6.0 0.00 0.00 0.00 88 1012.5
20260505074003 52 339 2.0 3.0 0.00 0.00 0.00 90 1012.5
20260505073503 52 330 2.0 5.0 0.00 0.00 0.00 91 1012.5
20260505073217 52 327 2.0 5.0 0.00 0.00 0.00 91 1012.5
20260505072504 52 333 2.0 5.0 0.00 0.00 0.00 92 1012.6
20260505072003 51 10 2.0 3.0 0.00 0.00 0.00 93 1012.6
20260505071503 51 31 2.0 3.0 0.00 0.00 0.00 93 1012.6
20260505071003 51 31 1.0 3.0 0.00 0.00 0.00 93 1012.6
20260505070504 51 31 1.0 3.0 0.00 0.00 0.00 93 1012.6
20260505070005 51 31 1.0 3.0 0.00 0.00 0.00 93 1012.6
20260505065712 51 31 1.0 3.0 0.00 0.00 0.00 93 1012.6
20260505065003 51 31 1.0 3.0 0.00 0.00 0.00 93 1012.6
20260505064503 50 31 1.0 3.0 0.00 0.00 0.00 93 1012.6
20260505064217 50 31 1.0 3.0 0.00 0.00 0.00 93 1012.8
20260505063714 50 31 1.0 3.0 0.00 0.00 0.00 93 1012.8
20260505063005 50 31 1.0 3.0 0.00 0.00 0.00 93 1012.8
20260505062503 50 31 1.0 3.0 0.00 0.00 0.00 93 1012.8
20260505062003 50 31 1.0 3.0 0.00 0.00 0.00 93 1012.8